Weather History for Sparta, WI

Change the Weather History Date:

Wednesday, June 5, 2013

  Actual Average Record
Temperature  
Mean Temperature 54 °F -  
Max Temperature 57 °F 76 °F 91 °F (1968)
Min Temperature 50 °F 50 °F 36 °F (1951)
Degree Days  
Heating Degree Days 12    
Growing Degree Days 4 (Base 50)    
Moisture  
Dew Point 52 °F    
Average Humidity 94    
Maximum Humidity 98    
Minimum Humidity 90    
Precipitation  
Precipitation 0.19 in - - ()
Sea Level Pressure  
Sea Level Pressure 30.03 in    
Wind  
Wind Speed 5 mph (East)    
Max Wind Speed 10 mph    
Max Gust Speed -    
Visibility 7 miles    
Events Rain    
Averages and records for this station are not official NWS values.
T = Trace of Precipitation, MM = Missing Value Source: NWS Daily Summary

Daily Weather History Graph

Daily Weather History Graph

Search for Another Location

Airport:

Trip Planner

Search our weather history database for the weather conditions in past years. The results will help you decide how hot, cold, wet, or windy it might be!

Date:

Astronomy

Jun. 05, 2013 Rise Set
Actual Time 5:21 AM CDT 8:42 PM CDT
Civil Twilight 4:45 AM CDT 9:17 PM CDT
Nautical Twilight 3:59 AM CDT 10:04 PM CDT
Astronomical Twilight 3:01 AM CDT 11:02 PM CDT
Moon 3:30 AM CDT (6/5) 6:04 PM CDT (6/5)
Length of Visible Light 16h 32m
Length of Day
15h 20m
Waning Crescent, 8% of the Moon is Illuminated
Jun 5
Waning Crescent
Jun 8
New
Jun 16
First Quarter
Jun 23
Full
Jun 29
Last Quarter

Hourly Weather History & Observations

Time (CDT) Temp. Dew Point Humidity Pressure Visibility Wind Dir Wind Speed Gust Speed Precip Events Conditions
12:15 AM 52.3 °F 51.1 °F 95% 30.12 in 7.0 mi East 5.8 mph - N/A   Unknown
12:35 AM 52.3 °F 50.9 °F 95% 30.12 in 7.0 mi ESE 5.8 mph - N/A   Unknown
12:55 AM 52.2 °F 50.5 °F 94% 30.12 in 7.0 mi ESE 5.8 mph - N/A   Unknown
1:15 AM 52.2 °F 50.0 °F 92% 30.11 in 10.0 mi ESE 8.1 mph - N/A   Unknown
1:35 AM 51.8 °F 49.6 °F 92% 30.11 in 10.0 mi East 5.8 mph - N/A   Unknown
1:55 AM 51.8 °F 49.3 °F 91% 30.10 in 10.0 mi East 4.6 mph - N/A   Unknown
2:15 AM 51.3 °F 49.1 °F 92% 30.10 in 10.0 mi East 4.6 mph - N/A   Unknown
2:35 AM 50.9 °F 49.1 °F 94% 30.10 in 10.0 mi Calm Calm - N/A   Unknown
2:55 AM 51.1 °F 49.3 °F 94% 30.10 in 10.0 mi ENE 3.5 mph - N/A   Unknown
3:15 AM 51.1 °F 49.3 °F 94% 30.09 in 10.0 mi East 4.6 mph - N/A   Unknown
3:35 AM 51.1 °F 49.1 °F 93% 30.08 in 10.0 mi East 5.8 mph - N/A   Unknown
3:55 AM 51.1 °F 49.1 °F 93% 30.07 in 10.0 mi East 5.8 mph - N/A   Unknown
4:15 AM 51.3 °F 49.1 °F 92% 30.08 in 10.0 mi East 4.6 mph - N/A   Unknown
4:35 AM 51.3 °F 49.1 °F 92% 30.08 in 10.0 mi East 4.6 mph - N/A   Unknown
4:55 AM 51.3 °F 49.1 °F 92% 30.07 in 10.0 mi East 4.6 mph - N/A   Unknown
5:15 AM 51.3 °F 49.1 °F 92% 30.07 in 10.0 mi East 3.5 mph - N/A   Unknown
5:35 AM 51.4 °F 49.1 °F 92% 30.06 in 10.0 mi East 4.6 mph - N/A   Unknown
5:55 AM 51.4 °F 49.1 °F 92% 30.07 in 10.0 mi Calm Calm - N/A   Unknown
6:15 AM 51.6 °F 49.5 °F 92% 30.07 in 7.0 mi Calm Calm - N/A Rain Rain
6:35 AM 51.1 °F 49.5 °F 94% 30.09 in 5.0 mi North 5.8 mph - 0.04 in Rain Heavy Rain
6:55 AM 50.9 °F 49.6 °F 95% 30.09 in 4.0 mi NE 6.9 mph - 0.08 in Rain Rain
7:15 AM 50.9 °F 49.6 °F 95% 30.07 in 4.0 mi ENE 6.9 mph - 0.04 in Rain Light Rain
7:35 AM 51.1 °F 50.0 °F 96% 30.06 in 7.0 mi East 8.1 mph - 0.05 in Rain Light Rain
7:55 AM 51.4 °F 50.0 °F 95% 30.06 in 10.0 mi East 5.8 mph - 0.05 in   Unknown
8:15 AM 51.4 °F 50.0 °F 95% 30.07 in 10.0 mi East 4.6 mph - N/A   Unknown
8:35 AM 51.6 °F 50.0 °F 94% 30.07 in 5.0 mi East 5.8 mph - N/A Rain Rain
8:55 AM 51.8 °F 50.4 °F 95% 30.07 in 4.0 mi East 6.9 mph - 0.01 in Rain Rain
9:15 AM 51.8 °F 50.7 °F 96% 30.06 in 5.0 mi East 8.1 mph - 0.01 in Rain Light Rain
9:35 AM 52.2 °F 51.1 °F 96% 30.05 in 5.0 mi East 10.4 mph - 0.03 in Rain Light Rain
9:55 AM 52.2 °F 50.9 °F 95% 30.06 in 4.0 mi East 6.9 mph - 0.03 in   Light Drizzle
10:15 AM 52.5 °F 51.3 °F 95% 30.05 in 4.0 mi East 5.8 mph - N/A   Mist
10:35 AM 52.9 °F 51.3 °F 94% 30.05 in 7.0 mi ESE 3.5 mph - N/A   Unknown
10:55 AM 53.4 °F 51.8 °F 94% 30.05 in 5.0 mi East 5.8 mph - N/A   Mist
11:15 AM 53.6 °F 52.0 °F 94% 30.05 in 5.0 mi East 4.6 mph - N/A   Mist
11:35 AM 54.1 °F 52.3 °F 94% 30.04 in 7.0 mi ESE 6.9 mph - N/A   Unknown
11:55 AM 54.9 °F 52.7 °F 92% 30.04 in 7.0 mi ESE 4.6 mph - N/A   Unknown
12:15 PM 54.9 °F 52.2 °F 91% 30.04 in 10.0 mi ESE 5.8 mph - N/A   Unknown
12:35 PM 55.4 °F 52.9 °F 91% 30.03 in 10.0 mi East 4.6 mph - N/A   Unknown
12:55 PM 55.4 °F 52.9 °F 91% 30.03 in 10.0 mi Calm Calm - N/A   Unknown
1:15 PM 56.3 °F 53.6 °F 91% 30.03 in 10.0 mi Calm Calm - N/A Rain Light Rain
1:35 PM 55.9 °F 53.1 °F 90% 30.03 in 7.0 mi SE 3.5 mph - N/A   Light Drizzle
1:55 PM 55.9 °F 53.6 °F 92% 30.02 in 7.0 mi ESE 6.9 mph - N/A   Unknown
2:15 PM 56.7 °F 54.7 °F 93% 30.01 in 3.0 mi East 4.6 mph - N/A   Mist
2:35 PM 56.5 °F 54.3 °F 92% 30.01 in 10.0 mi ESE 4.6 mph - N/A   Unknown
2:55 PM 57.2 °F 54.3 °F 90% 30.00 in 10.0 mi ESE 5.8 mph - N/A   Unknown
3:15 PM 57.2 °F 54.3 °F 90% 30.00 in 10.0 mi ESE 5.8 mph - N/A Rain Light Rain
3:35 PM 56.8 °F 54.5 °F 92% 29.99 in 7.0 mi East 4.6 mph - N/A   Drizzle
3:55 PM 56.5 °F 54.5 °F 93% 29.98 in 7.0 mi East 6.9 mph - N/A Rain Rain
4:15 PM 56.7 °F 54.9 °F 94% 29.96 in 7.0 mi ESE 9.2 mph - N/A Rain Light Rain
4:35 PM 57.4 °F 55.2 °F 92% 29.96 in 10.0 mi ESE 6.9 mph - N/A   Unknown
4:55 PM 57.2 °F 54.7 °F 91% 29.97 in 10.0 mi ESE 3.5 mph - N/A   Unknown
5:15 PM 57.2 °F 54.9 °F 92% 29.97 in 10.0 mi East 3.5 mph - N/A   Unknown
5:35 PM 57.2 °F 55.0 °F 92% 29.97 in 10.0 mi Calm Calm - N/A   Unknown
5:55 PM 57.2 °F 55.0 °F 92% 29.96 in 10.0 mi Calm Calm - N/A   Unknown
6:15 PM 56.8 °F 55.0 °F 94% 29.96 in 7.0 mi Calm Calm - N/A   Unknown
6:35 PM 56.5 °F 55.0 °F 95% 29.95 in 4.0 mi Calm Calm - N/A   Light Drizzle
6:55 PM 56.5 °F 55.2 °F 96% 29.95 in 1.8 mi Calm Calm - N/A Rain Light Rain
7:15 PM 56.3 °F 55.4 °F 97% 29.96 in 1.2 mi NW 4.6 mph - 0.01 in Rain Light Rain
7:35 PM 56.3 °F 55.4 °F 97% 29.96 in 1.5 mi Calm Calm - 0.02 in Rain Light Rain
7:55 PM 55.9 °F 55.0 °F 97% 29.96 in 2.0 mi Calm Calm - 0.02 in   Drizzle
8:15 PM 55.9 °F 55.4 °F 98% 29.96 in 2.5 mi Calm Calm - N/A   Light Drizzle
8:35 PM 55.9 °F 55.4 °F 98% 29.96 in 3.0 mi Calm Calm - N/A   Mist
8:55 PM 56.1 °F 55.4 °F 97% 29.96 in 3.0 mi Calm Calm - N/A   Mist
9:15 PM 56.3 °F 55.4 °F 97% 29.96 in 2.5 mi Calm Calm - N/A   Mist
9:35 PM 56.1 °F 55.4 °F 97% 29.96 in 4.0 mi Calm Calm - N/A   Mist
9:55 PM 55.8 °F 54.9 °F 97% 29.96 in 5.0 mi East 4.6 mph - N/A   Mist
10:15 PM 55.4 °F 54.5 °F 97% 29.96 in 7.0 mi ENE 3.5 mph - N/A   Unknown
10:35 PM 55.4 °F 54.1 °F 96% 29.96 in 7.0 mi ENE 3.5 mph - N/A   Unknown
10:55 PM 54.9 °F 53.6 °F 96% 29.96 in 10.0 mi ENE 3.5 mph - N/A   Unknown
11:15 PM 54.1 °F 52.7 °F 95% 29.96 in 10.0 mi ENE 3.5 mph - N/A   Unknown
11:35 PM 54.0 °F 52.3 °F 94% 29.96 in 10.0 mi ENE 4.6 mph - N/A   Unknown
11:55 PM 53.6 °F 52.0 °F 94% 29.97 in 7.0 mi NE 3.5 mph - N/A   Unknown